(39) Laetitia
ephemeris date magn radius delta ra dec elong phase
Today24 Jan 202511.12.509 AU2.541 AU01h30m-00°40'76.9°22.5°
Opposition27 Jan 202610.02.896 AU1.918 AU08h31m+10°51'172.2°2.6°
(39) Laetitia - 2025-01-24
astro.vanbuitenen.nl


 
-1 year
-1 month
-1 day
Now
+1 day
+1 month
+1 year

The interactive orbit chart above shows the body's path through the solar system and its position at the given date. Green and blue lines are shown perpendicular to the ecliptic plane: Green if the path is above the ecliptic plane, blue if it is below. (Left-click and drag to rotate the view; Right-click and drag to move the view; Use scroll wheel to zoom in our out.)

The orbital elements of Laetitia are:

            e (Eccentricity)                : 0.1120252
            a (Semimajor axis)              : 2.7684770
            i (Inclination)                 : 10.37094
            Ω (Longitude of ascending node) : 156.92610
            ω (Argument of perihelion)      : 209.95919
            M (Mean anomaly)                : 8.48027
            Epoch                           : 2024 Oct 17

            L (Longitude of perihelion)     : 186.47865
            B (Latitude of perihelion)      : -5.15780
            P (Orbital period in years)     : 4.61            
        

The light curve chart below shows the estimated development of the minor planet's magnitude.


The all-sky chart below shows the path of the minor planet over the same period as the light curve. The current position is marked yellow.





The following chart shows the path of the minor planet in the next few days. The field of view is optimized for (~10x50) binoculars and finderscopes. A more printer-friendly version of the same chart can be found below.




Ephemerides:
Date       Time       RA (2000)    DEC (2000)    delta   radius  elong  phase   PA    magn
2025-01-24 00:00 UT   01 30 17.8   +00 40 01     2.541    2.509   76.9   22.5    70   11.1 
2025-01-24 18:11 UT   01 31 11.4   +00 33 17     2.551    2.509   76.4   22.4    70   11.1 
2025-01-25 00:00 UT   01 31 28.7   +00 31 07     2.554    2.510   76.2   22.4    71   11.1 
2025-01-26 00:00 UT   01 32 40.2   +00 22 11     2.568    2.510   75.6   22.3    71   11.1 
2025-01-27 00:00 UT   01 33 52.5   +00 13 12     2.581    2.511   74.9   22.2    71   11.1 
2025-01-28 00:00 UT   01 35 05.4   +00 04 12     2.594    2.512   74.2   22.2    71   11.1 
2025-01-29 00:00 UT   01 36 19.0   +00 04 50     2.607    2.512   73.6   22.1    71   11.1 
2025-01-30 00:00 UT   01 37 33.2   +00 13 54     2.620    2.513   72.9   22.0    71   11.1 
2025-01-31 00:00 UT   01 38 48.0   +00 22 59     2.633    2.514   72.3   21.9    72   11.1 
2025-02-01 00:00 UT   01 40 03.5   +00 32 06     2.645    2.515   71.6   21.8    72   11.1 
2025-02-02 00:00 UT   01 41 19.6   +00 41 14     2.658    2.515   70.9   21.7    72   11.2 
2025-02-03 00:00 UT   01 42 36.3   +00 50 23     2.671    2.516   70.3   21.6    72   11.2 
2025-02-04 00:00 UT   01 43 53.5   +00 59 33     2.684    2.517   69.7   21.5    72   11.2 
2025-02-05 00:00 UT   01 45 11.4   +01 08 45     2.696    2.518   69.0   21.4    72   11.2 
2025-02-06 00:00 UT   01 46 29.8   +01 17 57     2.709    2.518   68.4   21.3    73   11.2 
2025-02-07 00:00 UT   01 47 48.8   +01 27 09     2.722    2.519   67.7   21.2    73   11.2 
2025-02-08 00:00 UT   01 49 08.4   +01 36 23     2.734    2.520   67.1   21.1    73   11.2 
2025-02-09 00:00 UT   01 50 28.4   +01 45 37     2.747    2.521   66.5   21.0    73   11.2 
2025-02-10 00:00 UT   01 51 49.0   +01 54 51     2.759    2.521   65.8   20.9    73   11.2 
2025-02-11 00:00 UT   01 53 10.2   +02 04 06     2.772    2.522   65.2   20.8    73   11.2 
2025-02-12 00:00 UT   01 54 31.8   +02 13 20     2.784    2.523   64.6   20.7    74   11.2 
2025-02-13 00:00 UT   01 55 54.0   +02 22 36     2.796    2.524   63.9   20.6    74   11.2 
2025-02-14 00:00 UT   01 57 16.6   +02 31 51     2.809    2.524   63.3   20.5    74   11.2 
2025-02-15 00:00 UT   01 58 39.8   +02 41 06     2.821    2.525   62.7   20.3    74   11.2 
2025-02-16 00:00 UT   02 00 03.4   +02 50 21     2.833    2.526   62.1   20.2    74   11.2 


    Terminology:
            
    delta:  distance between minor planet and earth in AU
    radius: distance between minor planet and sun in AU
    magn:   magnitude (brightness) estimate    
    ra:     right ascension in hours (24h = 360deg)
    dec:    declination in degrees
    elong:  elongation in degrees (angle sun-earth-minor planet)    
    phase:  phase angle in degrees (angle sun-minor planet-earth)        
    AU:     Astronomical Unit (mean distance between earth and sun: 149597870.7 km
    

Orbital elements provided by the MPC (Minor Planet Center).
Calculations by a modified version of AAPlus, a C# implementation of the AA+ project by PJ Naughter from the algorithms presented in the book "Astronomical Algorithms" by Jean Meeus.
NGC2000 dso catalog and star labels from VizieR as provided by the Strasbourg astronomical Data Center.
Tycho2 catalog from the ESO archive.